W6DSP Weather Reports


Display with metric or nautical units.
time (UTC)temp
F
wind
direction
speed
MPH
gust
MPH
rain 1hr
in
rain 24hr
in
rain mn
in
humidity
%
barometer
mb
20260831203436 88 142 1.0 12.0 0.00 0.01 0.01 71 1015.0
20260831201030 87 119 1.0 11.0 0.00 0.01 0.01 77 1015.0
20260831194607 83 128 0.0 3.0 0.00 0.01 0.01 82 1015.6
20260831193358 82 157 0.0 1.0 0.00 0.01 0.01 84 1015.9
20260831185812 77 294 0.0 1.0 0.00 0.01 0.01 90 1016.4
20260831182109 76 5 0.0 1.0 0.00 0.00 0.00 90 1017.0
20260831180910 76 5 0.0 2.0 0.00 0.00 0.00 90 1017.3
20260831173305 77 270 0.0 1.0 0.00 0.00 0.00 87 1017.5
20260831172130 77 149 0.0 4.0 0.00 0.00 0.00 88 1017.3
20260831165717 77 117 0.0 2.0 0.00 0.00 0.00 88 1017.6
20260831160843 77 294 0.0 1.0 0.00 0.00 0.00 87 1018.4
20260831152102 77 79 0.0 1.0 0.00 0.00 0.00 85 1017.9
20260831150928 77 140 0.0 0.0 0.00 0.00 0.00 84 1017.9
20260831142039 76 163 1.0 7.0 0.00 0.00 0.00 83 1017.6
20260831140845 75 123 0.0 4.0 0.00 0.00 0.00 85 1017.6
20260831133331 75 136 0.0 1.0 0.00 0.00 0.00 86 1017.5
20260831130908 74 224 0.0 1.0 0.00 0.00 0.00 86 1017.6
20260831123231 72 110 0.0 2.0 0.00 0.00 0.00 92 1017.3
20260831115708 69 5 0.0 1.0 0.00 0.00 0.00 93 1016.8
20260831113319 69 5 0.0 2.0 0.00 0.00 0.00 93 1016.8
20260831110815 69 5 0.0 2.0 0.00 0.00 0.00 93 1016.8
20260831102056 69 61 0.0 0.0 0.00 0.00 0.00 93 1016.8
20260831095632 69 61 0.0 0.0 0.00 0.00 0.00 92 1016.6
20260831092120 70 99 0.0 0.0 0.00 0.00 0.00 92 1016.6
20260831082218 70 99 0.0 0.0 0.00 0.00 0.00 92 1016.5
20260831070900 71 94 0.0 2.0 0.00 0.00 0.00 92 1016.9
20260831063341 71 94 0.0 0.0 0.00 0.00 0.00 92 1017.2
20260831045756 72 80 0.0 0.0 0.00 0.00 0.00 91 1017.4
20260831043328 72 80 0.0 0.0 0.00 0.00 0.00 91 1017.3
20260831040853 72 80 0.0 0.0 0.00 0.00 0.00 91 1017.2
20260831033321 72 80 0.0 0.0 0.00 0.00 0.00 90 1017.1
20260831030835 73 80 0.0 0.0 0.00 0.00 0.00 90 1016.9
20260831025606 73 80 0.0 0.0 0.00 0.00 0.00 89 1016.8
20260831024343 73 80 0.0 0.0 0.00 0.00 0.00 90 1016.7
20260831023133 73 79 0.0 2.0 0.00 0.00 0.00 90 1016.9
20260830233000 76 79 0.0 0.0 0.00 0.00 0.00 88 1017.0
20260830230512 77 79 0.0 0.0 0.00 0.00 0.00 84 1017.2
20260830225331 78 79 0.0 0.0 0.00 0.00 0.00 85 1017.3
20260830222953 78 79 0.0 0.0 0.00 0.00 0.00 84 1017.4
20260830221824 78 79 0.0 0.0 0.00 0.00 0.00 82 1017.6
20260830215416 80 80 0.0 2.0 0.00 0.00 0.00 77 1017.6
20260830214205 81 83 0.0 1.0 0.00 0.00 0.00 72 1017.5
20260830213019 80 82 0.0 0.0 0.00 0.00 0.00 76 1017.4
20260830210624 81 157 0.0 0.0 0.00 0.00 0.00 75 1017.1
20260830205417 80 178 1.0 9.0 0.00 0.00 0.00 73 1017.2